Weather in Le Lavandou

France     43°08′17″N   6°21′45″E
temp.,
°C
wind,
m/s
gust,
m/s
humid.,
%
clouds,
%
prec.,
mm/h
press.,
hPa
HPBL,
m
17 may, tue
tue1723:00+18wsw2256100 0.0 102022
02:00+17nw1155100 0.0 101912
05:00+15n115926 0.0 101911
08:00+18ne115533 0.0 1019103
11:00+25s22405 0.0 1019690
14:00+26s43425 0.0 1018795
17:00+24s55475 0.0 1017534
20:00+22ssw23605 0.0 1016101
18 may, wed
wed1823:00+18nnw11695 0.0 101812
02:00+17n11715 0.0 101711
05:00+16nne22765 0.0 101818
08:00+19ne23685 0.0 1019168
11:00+25e35475 0.0 1020780
14:00+27ese56375 0.0 10191053
17:00+26se453938 0.0 1019918
20:00+22ese2255100 0.0 102056
19 may, thu
thu1923:00+18ne1166100 0.0 102113
02:00+17ne227086 0.0 102216
05:00+16nne22785 0.0 102221
08:00+20ne256743 0.0 1024234
11:00+25ese674571 0.0 1024940
14:00+26se564488 0.0 10251073
17:00+25ese44435 0.0 1024912
20:00+22se225633 0.0 102449
20 may, fri
fri2023:00+18ene11705 0.0 102511
02:00+17ne22725 0.0 102613
05:00+16nne11735 0.0 102614
08:00+20ne12605 0.0 1026113
11:00+26sse32403 0.0 1026974
14:00+26s44410 0.0 1025820
17:00+25ssw45485 0.0 1024601
20:00+22ssw35575 0.0 1023217
21 may, sat
sat2123:00+19w226080 0.0 102320
02:00+18nw226128 0.0 102212
05:00+17nw226090 0.0 102114
08:00+21wnw124982 0.0 102098
11:00+27ssw333214 0.0 1019835
14:00+28s543689 0.0 1018702
17:00+26s444740 0.0 1016463
20:00+22s236677 0.0 1015189